Find Beidou DW 60

NORAD ID: 61187 Int'l Des: 2024-168 Owner: CNSA Country: CN Constellation: BeiDou operational
MEOCIRCULAR

实时位置

正在加载3D地球...

关于 Beidou DW 60

正在加载描述...

即将过境

Passes for default location (London). Set your location on the main map for personalized predictions.

高度历史

Loading altitude history...

两行轨道根数

1 61187U 24168C 26121.00331709 -.00000079 00000-0 00000+0 0 9995
2 61187 54.5116 303.8640 0002560 40.2999 318.3931 1.86230425 8374
Epoch: May 1, 2026 • Age: 80 hours

当前状态

高度 21527.3 km
速度 3.78 km/s
星下点 46.78°N, 15.07°E
发射日期 Sep 19, 2024
运行时间 1.6 years
类型 navigation

发射组

Unknown Vehicle • BeiDou Launch 47 • 2 satellites

技术详情

分类 Payload
质量 1014.00 kg
干质量 850.00 kg
总质量 1014.00 kg
长度 2.20 m
直径 1.70 m
跨度 10.00 m
形状 Box + 2 Pan
制造商 CAST
平台类型 BD-3M
阶段状态 In Orbit
所有者/国家 CNSA/CN

Most Searched